Waarnemingen

Advertentie
Mijn weer
Eindhoven, Nederland (6370): temperatuur & dauwpunt: 17.07.2018 17:00:00 - 23.07.2018 17:00:00 (CEST)Eindhoven, Nederland (6370): temperatuur 5cm: 17.07.2018 17:00:00 - 23.07.2018 17:00:00 (CEST)Eindhoven, Nederland (6370): windsnelheid & windstoten: 17.07.2018 17:00:00 - 23.07.2018 17:00:00 (CEST)Eindhoven, Nederland (6370): windrichting: 17.07.2018 17:00:00 - 23.07.2018 17:00:00 (CEST)Eindhoven, Nederland (6370): luchtdruk: 17.07.2018 17:00:00 - 23.07.2018 17:00:00 (CEST)Eindhoven, Nederland (6370): zicht: 17.07.2018 17:00:00 - 23.07.2018 17:00:00 (CEST)Eindhoven, Nederland (6370): neerslag: 17.07.2018 17:00:00 - 23.07.2018 17:00:00 (CEST)
Datum & Tijd tt [°C] td [°C] tt 5cm [°C] ff [km/u] ff [kn] fx [km/u] fx [kn] dd ppp [hPa] vv [km] rr [mm]
23.07.2018 17:00:00 28,8 15,5 31,0 8 4 18 10 NW 1016,3 10 0,0
23.07.2018 16:00:00 29,3 15,4 32,0 13 7 22 12 NNW 1016,6 10 0,0
23.07.2018 15:00:00 29,4 15,1 32,3 5 3 22 12 NNW 1016,6 10 0,0
23.07.2018 14:00:00 28,8 14,7 32,9 8 4 18 10 - 1016,7 10 0,0
23.07.2018 13:00:00 28,5 14,6 33,0 9 5 18 10 W 1016,9 10 0,0
23.07.2018 12:00:00 27,2 14,3 31,5 4 2 22 12 - 1017,2 10 0,0
23.07.2018 11:00:00 25,9 14,0 29,4 8 4 18 10 W 1017,2 10 0,0
23.07.2018 10:00:00 24,7 14,4 27,5 5 3 14 8 W 1017,2 10 0,0
23.07.2018 09:00:00 22,7 14,8 24,6 8 4 11 6 ZZW 1017,3 10 0,0
23.07.2018 08:00:00 21,4 14,5 22,0 2 1 7 4 - 1017,3 10 0,0
23.07.2018 07:00:00 18,9 15,0 17,8 2 1 7 4 - 1017,2 10 0,0
23.07.2018 06:00:00 18,0 14,9 16,8 2 1 4 2 Z 1017,0 10 0,0
23.07.2018 05:00:00 18,0 14,7 17,4 2 1 11 6 W 1016,8 10 0,0
23.07.2018 04:00:00 18,1 14,8 17,4 5 3 7 4 ZZO 1016,6 10 0,0
23.07.2018 03:00:00 17,3 14,4 16,1 4 2 7 4 WZW 1016,9 10 0,0
23.07.2018 02:00:00 16,2 13,6 13,9 4 2 7 4 ZW 1017,0 10 0,0
23.07.2018 01:00:00 16,7 14,3 12,7 0 0 4 2 N 1017,0 10 0,0
23.07.2018 00:00:00 16,7 13,6 13,5 4 2 7 4 - 1016,8 10 0,0
22.07.2018 23:00:00 20,1 14,4 17,0 5 3 7 4 NW 1016,5 10 0,0
22.07.2018 22:00:00 21,4 14,5 19,2 8 4 14 8 NW 1016,0 10 0,0
22.07.2018 21:00:00 23,8 14,4 23,2 8 4 22 12 NW 1015,4 10 0,0
22.07.2018 20:00:00 25,8 13,2 26,6 15 8 25 14 NW 1015,1 10 0,0
22.07.2018 19:00:00 26,8 12,0 28,4 21 11 32 18 NW 1014,8 10 0,0
22.07.2018 18:00:00 27,4 12,6 29,7 22 12 36 19 NNW 1014,8 10 0,0
22.07.2018 17:00:00 27,7 12,5 31,0 16 9 29 16 WNW 1014,6 10 0,0
22.07.2018 16:00:00 28,6 10,9 33,3 13 7 36 19 W 1014,6 10 0,0
22.07.2018 15:00:00 26,9 12,1 28,4 11 6 25 14 W 1014,8 10 0,0
22.07.2018 14:00:00 26,8 12,7 31,1 11 6 22 12 NW 1015,0 10 0,0
22.07.2018 13:00:00 26,7 13,3 32,0 9 5 25 14 WZW 1015,1 10 0,0
22.07.2018 12:00:00 25,4 13,0 29,6 8 4 14 8 ZW 1015,4 10 0,0
22.07.2018 11:00:00 24,3 13,1 27,8 8 4 14 8 WZW 1015,4 10 0,0
22.07.2018 10:00:00 21,9 14,2 25,2 8 4 11 6 - 1015,4 10 0,0
22.07.2018 09:00:00 19,4 14,5 21,3 4 2 11 6 - 1015,5 9 0,0
22.07.2018 08:00:00 16,6 13,4 16,9 5 3 7 4 WZW 1015,1 8 0,0
22.07.2018 07:00:00 13,1 10,8 11,8 4 2 7 4 - 1014,7 10 0,0
22.07.2018 06:00:00 12,1 9,8 9,7 5 3 14 8 W 1014,6 10 0,0
22.07.2018 05:00:00 14,3 10,8 12,3 8 4 14 8 W 1014,4 10 0,0
22.07.2018 04:00:00 13,5 11,0 10,6 5 3 14 8 WZW 1014,2 10 0,0
22.07.2018 03:00:00 15,3 11,8 12,0 5 3 11 6 W 1014,0 10 0,0
22.07.2018 02:00:00 16,2 12,2 14,5 9 5 14 8 WNW 1014,0 10 0,0
22.07.2018 01:00:00 16,7 12,2 15,0 8 4 14 8 W 1013,9 10 0,0
22.07.2018 00:00:00 18,1 12,3 16,8 9 5 14 8 WNW 1013,6 10 0,0
21.07.2018 23:00:00 19,6 12,5 18,3 9 5 14 8 WNW 1013,5 10 0,0
21.07.2018 22:00:00 20,8 11,7 19,7 11 6 22 12 NW 1013,1 10 0,0
21.07.2018 21:00:00 22,8 11,3 22,4 15 8 29 16 NW 1012,4 10 0,0
21.07.2018 20:00:00 24,8 11,6 25,5 21 11 32 18 WNW 1011,9 10 0,0
21.07.2018 19:00:00 27,0 13,6 28,6 18 10 29 16 WNW 1011,4 10 0,0
21.07.2018 18:00:00 27,2 13,5 29,6 16 9 29 16 NW 1011,3 10 0,0
21.07.2018 17:00:00 28,3 13,4 33,0 16 9 32 18 WNW 1011,2 10 0,0
21.07.2018 16:00:00 27,3 12,7 31,2 15 8 32 18 NW 1011,2 10 0,0
21.07.2018 15:00:00 27,8 12,3 32,8 15 8 29 16 W 1011,3 10 0,0
21.07.2018 14:00:00 27,8 12,8 32,3 8 4 25 14 W 1011,4 10 0,0
21.07.2018 13:00:00 27,1 13,8 31,3 9 5 22 12 - 1011,5 10 0,0
21.07.2018 12:00:00 25,1 13,9 29,4 11 6 22 12 - 1011,3 10 0,0
21.07.2018 11:00:00 23,5 14,0 27,1 9 5 14 8 - 1011,4 10 0,0
21.07.2018 10:00:00 21,9 14,4 23,9 5 3 18 10 WNW 1011,8 10 0,0
21.07.2018 09:00:00 20,2 14,5 22,1 5 3 14 8 WNW 1011,6 10 0,0
21.07.2018 08:00:00 18,7 14,8 19,0 4 2 11 6 - 1011,4 10 0,0
21.07.2018 07:00:00 17,0 14,5 15,7 8 4 11 6 WNW 1010,8 10 0,0
21.07.2018 06:00:00 16,1 13,9 12,6 5 3 7 4 W 1010,6 10 0,0
21.07.2018 05:00:00 17,8 14,1 16,8 5 3 11 6 W 1010,7 10 0,0
21.07.2018 04:00:00 18,0 14,3 16,6 5 3 7 4 W 1011,1 10 0,0
21.07.2018 03:00:00 17,3 15,0 16,3 5 3 11 6 ZW 1011,4 10 0,0
21.07.2018 02:00:00 18,0 14,9 16,6 4 2 7 4 - 1011,4 10 0,0
21.07.2018 01:00:00 19,0 14,9 17,9 5 3 11 6 NW 1011,7 10 0,0
21.07.2018 00:00:00 19,4 15,0 18,5 9 5 14 8 N 1011,5 10 0,0
20.07.2018 23:00:00 19,7 15,5 18,6 9 5 14 8 N 1012,0 10 0,3
20.07.2018 22:00:00 22,0 12,6 21,5 11 6 14 8 NNW 1012,3 10 0,0
20.07.2018 21:00:00 22,9 11,4 22,2 8 4 14 8 NNW 1011,9 10 0,0
20.07.2018 20:00:00 24,0 10,7 24,0 13 7 22 12 NNW 1012,1 10 0,0
20.07.2018 19:00:00 24,9 10,2 25,9 15 8 29 16 NW 1012,0 10 0,0
20.07.2018 18:00:00 25,4 9,5 27,4 16 9 25 14 NNW 1012,2 10 0,0
20.07.2018 17:00:00 26,0 9,6 28,2 16 9 29 16 NW 1012,6 10 0,0
20.07.2018 16:00:00 26,4 9,9 30,8 13 7 25 14 WNW 1013,0 10 0,0
20.07.2018 15:00:00 26,7 9,9 30,6 16 9 29 16 W 1013,3 10 0,0
20.07.2018 14:00:00 26,3 10,0 30,3 15 8 29 16 - 1013,7 10 0,0
20.07.2018 13:00:00 25,7 7,8 30,1 15 8 22 12 WNW 1014,1 10 0,0
20.07.2018 12:00:00 24,1 9,3 27,9 13 7 22 12 NW 1014,4 10 0,0
20.07.2018 11:00:00 23,9 11,3 27,1 13 7 18 10 - 1014,5 10 0,0
20.07.2018 10:00:00 21,2 12,4 23,8 11 6 18 10 NNW 1014,8 10 0,0
20.07.2018 09:00:00 18,5 13,6 20,4 9 5 14 8 NNW 1015,1 10 0,0
20.07.2018 08:00:00 15,9 13,7 16,4 5 3 7 4 NW 1015,0 9 0,0
20.07.2018 07:00:00 13,5 12,6 12,4 5 3 7 4 NNW 1015,1 6 0,0
20.07.2018 06:00:00 11,9 11,3 7,1 2 1 4 2 W 1015,4 10 0,0
20.07.2018 05:00:00 11,9 11,1 7,6 2 1 4 2 W 1015,8 10 0,0
20.07.2018 04:00:00 12,5 11,5 8,2 0 0 4 2 N 1015,7 10 0,0
20.07.2018 03:00:00 13,3 11,5 8,6 0 0 4 2 N 1016,1 10 0,0
20.07.2018 02:00:00 13,9 11,4 10,3 2 1 7 4 WNW 1016,5 10 0,0
20.07.2018 01:00:00 16,4 11,8 14,0 8 4 11 6 N 1016,8 10 0,0
20.07.2018 00:00:00 17,9 11,2 16,0 8 4 11 6 N 1017,0 10 0,0
19.07.2018 23:00:00 19,0 9,0 17,5 9 5 18 10 NNW 1017,0 10 0,0
19.07.2018 22:00:00 21,1 7,7 19,7 11 6 22 12 NNW 1017,1 10 0,0
19.07.2018 21:00:00 22,9 8,5 22,4 15 8 25 14 NNW 1016,9 10 0,0
19.07.2018 20:00:00 24,3 8,7 24,2 21 11 32 18 NNW 1016,5 10 0,0
19.07.2018 19:00:00 25,9 11,1 27,6 15 8 25 14 N 1016,5 10 0,0
19.07.2018 18:00:00 26,6 11,3 28,7 11 6 18 10 WNW 1016,7 10 0,0
19.07.2018 17:00:00 26,6 10,8 29,2 11 6 22 12 WNW 1017,2 10 0,0
19.07.2018 16:00:00 26,8 10,6 28,6 11 6 22 12 WNW 1017,6 10 0,0
19.07.2018 15:00:00 27,0 10,3 31,7 8 4 18 10 WNW 1017,6 10 0,0
19.07.2018 14:00:00 26,6 10,4 32,1 5 3 18 10 - 1017,9 10 0,0
19.07.2018 13:00:00 25,5 10,9 26,7 5 3 18 10 N 1018,2 10 0,0
19.07.2018 12:00:00 24,5 12,1 28,9 8 4 22 12 - 1018,5 10 0,0
19.07.2018 11:00:00 23,5 13,1 25,7 13 7 25 14 N 1018,6 10 0,0
19.07.2018 10:00:00 21,9 12,5 24,8 13 7 22 12 NW 1018,7 10 0,0
19.07.2018 09:00:00 19,8 14,1 21,6 5 3 11 6 NNW 1018,7 10 0,0
19.07.2018 08:00:00 16,9 13,8 16,8 5 3 11 6 NW 1018,8 10 0,0
19.07.2018 07:00:00 15,0 12,9 13,4 4 2 11 6 - 1018,6 10 0,0
19.07.2018 06:00:00 14,0 11,9 9,6 5 3 7 4 NNW 1018,5 10 0,0
19.07.2018 05:00:00 15,1 11,8 12,0 4 2 7 4 N 1018,5 10 0,0
19.07.2018 04:00:00 14,9 12,0 12,1 2 1 4 2 NW 1018,5 10 0,0
19.07.2018 03:00:00 15,4 11,8 11,8 2 1 4 2 NNW 1018,6 10 0,0
19.07.2018 02:00:00 16,8 11,7 14,7 2 1 7 4 NNW 1018,9 10 0,0
19.07.2018 01:00:00 17,3 11,4 16,1 8 4 14 8 NNW 1019,0 10 0,0
19.07.2018 00:00:00 18,2 11,2 17,0 9 5 18 10 NNW 1019,0 10 0,0
18.07.2018 23:00:00 19,7 11,7 18,8 11 6 18 10 NW 1018,8 10 0,0
18.07.2018 22:00:00 20,6 12,0 19,6 15 8 25 14 NNW 1018,4 10 0,0
18.07.2018 21:00:00 22,9 11,8 22,7 11 6 25 14 NNW 1017,9 10 0,0
18.07.2018 20:00:00 24,9 10,2 25,6 9 5 14 8 NNW 1017,6 10 0,0
18.07.2018 19:00:00 24,7 10,5 25,2 8 4 11 6 NW 1017,8 10 0,0
18.07.2018 18:00:00 25,0 9,6 26,7 5 3 18 10 NNW 1017,9 10 0,0
18.07.2018 17:00:00 25,1 9,4 27,8 9 5 22 12 NNO 1018,1 10 0,0
18.07.2018 16:00:00 26,1 9,8 28,8 5 3 14 8 ZW 1018,2 10 0,0
18.07.2018 15:00:00 24,5 9,3 27,7 8 4 18 10 - 1018,5 10 0,0
18.07.2018 14:00:00 24,5 8,7 29,4 8 4 22 12 ZW 1018,6 10 0,0
18.07.2018 13:00:00 23,5 9,5 26,3 8 4 22 12 NW 1018,9 10 0,0
18.07.2018 12:00:00 24,3 9,8 27,8 5 3 22 12 - 1018,9 10 0,0
18.07.2018 11:00:00 22,8 10,6 26,1 9 5 18 10 ZZO 1019,0 10 0,0
18.07.2018 10:00:00 21,3 11,2 24,4 8 4 14 8 ZW 1019,2 10 0,0
18.07.2018 09:00:00 19,9 11,8 21,8 5 3 14 8 ZZW 1019,1 10 0,0
18.07.2018 08:00:00 17,2 12,2 17,1 2 1 7 4 - 1019,0 10 0,0
18.07.2018 07:00:00 12,6 10,8 10,9 2 1 4 2 - 1018,8 10 0,0
18.07.2018 06:00:00 10,7 9,8 6,8 2 1 4 2 ZZW 1018,6 10 0,0
18.07.2018 05:00:00 10,6 9,6 6,3 4 2 4 2 ZW 1018,6 10 0,0
18.07.2018 04:00:00 11,2 10,3 6,7 2 1 4 2 ZW 1018,5 10 0,0
18.07.2018 03:00:00 11,6 10,4 7,3 4 2 7 4 Z 1018,6 10 0,0
18.07.2018 02:00:00 11,6 9,8 8,1 5 3 7 4 ZW 1018,4 10 0,0
18.07.2018 01:00:00 13,3 10,7 8,7 2 1 4 2 ZW 1018,4 10 0,0
18.07.2018 00:00:00 14,6 10,9 10,1 2 1 7 4 NNW 1018,2 10 0,0
17.07.2018 23:00:00 17,6 10,9 13,7 4 2 14 8 - 1017,9 10 0,0
17.07.2018 22:00:00 19,1 10,9 17,8 11 6 22 12 NNW 1017,7 10 0,0
17.07.2018 21:00:00 20,9 10,3 20,6 15 8 29 16 NW 1017,1 10 0,0
17.07.2018 20:00:00 22,0 8,5 22,6 16 9 36 19 WNW 1016,6 10 0,0
17.07.2018 19:00:00 23,5 11,5 25,4 21 11 36 19 W 1016,0 10 0,0
17.07.2018 18:00:00 25,6 11,1 28,0 18 10 32 18 WNW 1015,6 10 0,0
17.07.2018 17:00:00 25,9 12,5 28,9 18 10 36 19 W 1015,2 10 0,0

tt = temperatuur
td = dauwpunt
tt 5cm = temperatuur 5cm
ff = windsnelheid
fx = windstoten
dd = windrichting
ppp = luchtdruk
vv = zicht
rr = neerslag

Weerstations in de omgeving